Date,TemperatureHighF,TemperatureAvgF,TemperatureLowF,DewpointHighF,DewpointAvgF,DewpointLowF,HumidityHigh,HumidityAvg,HumidityLow,PressureMaxIn,PressureMinIn,WindSpeedMaxMPH,WindSpeedAvgMPH,GustSpeedMaxMPH,PrecipitationSumIn
2013-8-1,78.5,68.1,63.1,71.7,63.8,60.1,92,87,67,29.94,29.76,12,2,12,0.35
2013-8-2,76.6,66.2,58.5,67.6,61.2,54.9,92,84,64,29.90,29.83,7,1,7,0.19
2013-8-3,75.7,67.1,59.6,64.9,60.0,55.6,92,79,52,29.90,29.81,12,2,12,0.25
2013-8-4,71.1,63.6,55.9,62.2,56.7,53.3,92,79,61,30.03,29.90,15,3,15,0.01
2013-8-5,74.3,61.9,49.7,61.4,54.1,46.6,92,78,50,30.11,30.03,7,1,7,0.00
2013-8-6,81.1,67.0,53.0,63.5,58.0,49.8,93,75,46,30.07,30.00,7,1,7,0.00
2013-8-7,78.5,70.6,62.8,70.3,65.5,60.1,91,84,71,30.01,29.88,14,3,14,0.00
2013-8-8,85.5,72.7,66.5,73.9,67.9,62.6,92,85,64,29.96,29.90,8,1,8,0.35
2013-8-9,76.7,69.4,62.6,71.3,65.7,59.6,92,88,77,29.91,29.83,9,1,9,0.38
2013-8-10,71.4,64.7,53.6,62.7,57.2,48.8,93,78,47,30.09,29.90,14,2,14,0.01
2013-8-11,75.8,62.5,49.6,63.9,55.8,46.8,93,80,56,30.13,30.04,8,1,8,0.00
2013-8-12,80.0,67.5,57.0,68.2,61.2,54.2,92,81,54,30.05,29.85,5,0,5,0.00
2013-8-13,73.8,66.1,59.5,69.4,60.9,51.2,92,84,69,29.85,29.73,15,2,15,0.56
2013-8-14,68.3,59.9,53.7,57.7,53.2,50.6,92,79,57,30.07,29.82,17,4,17,0.05
2013-8-15,75.0,63.9,50.5,60.4,55.2,47.9,92,75,52,30.13,30.07,9,1,9,0.00
2013-8-16,76.8,63.6,52.8,62.0,55.5,49.6,92,77,47,30.21,30.11,6,1,6,0.01
2013-8-17,79.8,65.0,51.8,65.7,57.2,48.6,92,78,50,30.30,30.21,7,1,7,0.00
2013-8-18,81.0,67.2,57.4,68.0,60.6,53.9,92,80,57,30.25,30.10,6,0,6,0.00
2013-8-19,83.3,69.6,59.3,69.1,62.4,55.8,92,79,47,30.11,30.01,6,1,6,0.01
2013-8-20,85.2,70.5,59.2,70.1,62.6,56.1,92,78,52,30.12,30.05,7,1,7,0.01
2013-8-21,87.0,72.6,60.2,72.4,64.9,56.6,92,78,54,30.16,30.00,6,1,6,0.00
2013-8-22,86.9,72.0,62.1,74.5,66.6,58.4,91,84,60,30.02,29.85,12,1,12,1.07
2013-8-23,71.8,64.5,55.4,62.7,58.4,51.9,92,81,63,30.20,29.96,8,1,8,0.02
2013-8-24,74.7,63.0,53.2,61.1,54.3,49.7,92,76,45,30.36,30.20,7,1,7,0.00
2013-8-25,82.5,66.0,50.3,67.5,58.3,47.2,92,78,47,30.36,30.12,8,1,8,0.01
2013-8-26,76.3,68.7,63.8,73.1,65.2,60.2,92,89,86,30.14,29.91,8,0,8,1.43
2013-8-27,82.3,72.3,66.3,75.7,68.0,62.6,92,87,73,29.93,29.86,7,0,7,0.00
2013-8-28,83.0,73.1,66.0,75.8,68.2,62.3,92,85,74,29.93,29.84,9,1,9,0.00
2013-8-29,81.8,71.8,62.8,73.9,67.2,59.3,93,86,74,30.02,29.92,8,1,8,0.01
2013-8-30,86.6,72.7,60.8,74.7,66.4,57.5,93,82,54,30.00,29.76,5,0,5,0.02
2013-8-31,81.4,73.3,68.0,76.1,69.4,64.9,92,88,79,29.85,29.71,9,1,9,0.31